Location: Guadanolo
(41.9167°N, 12.9333°E)
Time: 07:18:14
(UTC+00:00)

Cosmos 2227 Rocket - Pass Details

Date: 16 September 2019
Orbit: 837 x 847 km, 71.0° (Epoch: 22 October)

Event Time Altitude Azimuth Distance (km) Brightness Sun altitude
Rises 19:30:09 0° 195° (SSW) 3,376 5.2 -24.6°
Enters shadow 19:30:22 - 195° (SSW) 3,293 5.1 -24.6°
Exits shadow 19:39:08 58° 57° (ENE) 978 2.3 -26.0°
Drops below altitude 10° 19:43:48 10° 28° (NNE) 2,470 4.6 -26.8°
Sets 19:46:16 0° 27° (NNE) 3,410 5.4 -27.1°
